マクノート彗星

C/2011 L3 ( McNaught )

English version
Home page
Updated on January 7, 2012

---------------------------------------------------------------------

・ プロフィール

発見日 2011年6月3日
発見光度 16.3等
発見者 Robert H. McNaught (Siding Spring)

・ 写真集

・ 軌道要素

Epoch 2011 Aug. 27.0 TT = JDT 2455800.5
T 2011 Aug. 10.50249 TT                                 MPC
q   1.9238402            (2000.0)            P               Q
z  -0.0000413      Peri.   27.72809     +0.56049624     -0.24965065
 +/-0.0000068      Node   307.75516     -0.81377585     +0.01088922
e   1.0000794      Incl.   87.11431     +0.15366469     +0.96827474
From 666 observations 2011 June 3-Nov. 24, mean residual 0".6.

・ 星図

・ 光度変化

        m1 = 5.0 + 5 logΔ + 30.0 log r(t + 15)

---------------------------------------------------------------------

軌道要素はM.P.E.C. 2011-W48に掲載されたものです。
星図はステラナビゲータ Ver.8 (アストロアーツ) で作成したものです。
光度グラフはComet for Windowsで作成したものです。

---------------------------------------------------------------------

Copyright(C) Seiichi Yoshida (comet@aerith.net). All rights reserved.